Weather History for KITH - September, 2013

Change the Weather History Date:

Thursday, September 26, 2013

  Actual Average Record
Temperature  
Mean Temperature 52 °F -  
Max Temperature 68 °F 64 °F 86 °F (1934)
Min Temperature 39 °F 44 °F 28 °F (1943)
Degree Days  
Heating Degree Days 13    
Growing Degree Days 2 (Base 50)    
Moisture  
Dew Point 47 °F    
Average Humidity 84    
Maximum Humidity 100    
Minimum Humidity 57    
Precipitation  
Precipitation 0.00 in - - ()
Sea Level Pressure  
Sea Level Pressure 30.09 in    
Wind  
Wind Speed 3 mph (NE)    
Max Wind Speed 12 mph    
Max Gust Speed -    
Visibility 10 miles    
Events      
Averages and records for this station are not official NWS values.
T = Trace of Precipitation, MM = Missing Value Source: NWS Daily Summary

Daily Weather History Graph

Daily Weather History Graph

Search for Another Location

Airport or City:

Trip Planner

Search our weather history database for the weather conditions in past years. The results will help you decide how hot, cold, wet, or windy it might be!

Date:

Astronomy

Sep. 26, 2013 Rise Set
Actual Time 6:57 AM EDT 6:55 PM EDT
Civil Twilight 6:29 AM EDT 7:23 PM EDT
Nautical Twilight 5:56 AM EDT 7:56 PM EDT
Astronomical Twilight 5:23 AM EDT 8:29 PM EDT
Moon 11:45 PM EDT (9/26) 1:54 PM EDT (9/26)
Length of Visible Light 12h 53m
Length of Day
11h 57m
Waning Gibbous, 55% of the Moon is Illuminated
Sep 26
Waning Gibbous
Sep 26
Last Quarter
Oct 4
New
Oct 11
First Quarter
Oct 18
Full

Hourly Weather History & Observations

Time (EDT) Temp. Windchill Dew Point Humidity Pressure Visibility Wind Dir Wind Speed Gust Speed Precip Events Conditions
12:56 AM 41.9 °F - 41.9 °F 100% 30.03 in 4.0 mi Calm Calm - N/A   Clear
1:56 AM 43.0 °F 40.3 °F 41.9 °F 96% 30.04 in 10.0 mi East 4.6 mph - N/A   Clear
2:56 AM 39.9 °F 35.8 °F 39.9 °F 100% 30.04 in 8.0 mi East 5.8 mph - N/A   Clear
3:56 AM 41.9 °F 39.0 °F 41.9 °F 100% 30.04 in 10.0 mi East 4.6 mph - N/A   Clear
4:56 AM 41.9 °F 39.0 °F 41.0 °F 97% 30.04 in 10.0 mi East 4.6 mph - N/A   Clear
5:56 AM 41.0 °F 39.0 °F 41.0 °F 100% 30.04 in 8.0 mi East 3.5 mph - N/A   Clear
6:21 AM 41.0 °F 38.0 °F 41.0 °F 100% 30.05 in 10.0 mi East 4.6 mph - N/A   Clear
6:56 AM 41.9 °F 38.2 °F 41.0 °F 97% 30.07 in 10.0 mi East 5.8 mph - N/A   Partly Cloudy
7:56 AM 43.0 °F - 43.0 °F 100% 30.09 in 10.0 mi Calm Calm - N/A   Clear
8:56 AM 48.9 °F - 46.9 °F 93% 30.10 in 10.0 mi ENE 3.5 mph - N/A   Clear
9:56 AM 56.8 °F - 48.9 °F 75% 30.10 in 10.0 mi Calm Calm - N/A   Clear
10:56 AM 59.9 °F - 50.0 °F 70% 30.11 in 10.0 mi Calm Calm - N/A   Partly Cloudy
11:56 AM 63.0 °F - 52.0 °F 67% 30.10 in 10.0 mi WNW 6.9 mph - N/A   Scattered Clouds
12:56 PM 64.9 °F - 52.9 °F 65% 30.10 in 10.0 mi NW 8.1 mph - N/A   Mostly Cloudy
1:56 PM 64.9 °F - 52.0 °F 63% 30.09 in 10.0 mi NW 11.5 mph - N/A   Mostly Cloudy
2:56 PM 65.8 °F - 52.9 °F 63% 30.08 in 10.0 mi Variable 4.6 mph - N/A   Mostly Cloudy
3:56 PM 64.9 °F - 50.9 °F 60% 30.09 in 10.0 mi North 3.5 mph - N/A   Mostly Cloudy
4:56 PM 65.8 °F - 50.0 °F 57% 30.09 in 10.0 mi North 8.1 mph - N/A   Scattered Clouds
5:56 PM 64.9 °F - 50.0 °F 58% 30.11 in 10.0 mi NE 6.9 mph - N/A   Scattered Clouds
6:56 PM 59.9 °F - 50.9 °F 72% 30.12 in 10.0 mi North 4.6 mph - N/A   Partly Cloudy
7:56 PM 54.9 °F - 50.9 °F 86% 30.14 in 10.0 mi NW 4.6 mph - N/A   Clear
8:56 PM 48.9 °F - 47.8 °F 96% 30.16 in 10.0 mi Calm Calm - N/A   Clear
9:56 PM 46.9 °F - 46.9 °F 100% 30.17 in 10.0 mi Calm Calm - N/A   Clear
10:56 PM 46.9 °F - 45.9 °F 96% 30.16 in 10.0 mi Calm Calm - N/A   Clear
11:56 PM 45.9 °F - 45.0 °F 97% 30.16 in 10.0 mi Calm Calm - N/A   Clear